| time (UTC) | temp C | wind direction | speed KPH | gust KPH | rain 1hr cm | rain 24hr cm | rain mn cm | humidity % | barometer mb |
| 20260505050646 | 18 | 130 | 4.8 | 6.4 | 0.00 | 0.00 | 0.00 | 75 | 1013.2 |
| 20260505050148 | 18 | 85 | 4.8 | 6.4 | 0.00 | 0.00 | 0.00 | 74 | 1013.2 |
| 20260505041646 | 19 | 148 | 3.2 | 4.8 | 0.00 | 0.00 | 0.00 | 70 | 1013.9 |
| 20260505041147 | 19 | 141 | 4.8 | 6.4 | 0.00 | 0.00 | 0.00 | 70 | 1013.9 |
| 20260505040647 | 19 | 135 | 4.8 | 6.4 | 0.00 | 0.00 | 0.00 | 70 | 1013.9 |
| 20260505040146 | 19 | 150 | 3.2 | 6.4 | 0.00 | 0.00 | 0.00 | 69 | 1013.9 |
| 20260505035647 | 19 | 147 | 4.8 | 4.8 | 0.00 | 0.00 | 0.00 | 69 | 1013.9 |
| 20260505035147 | 20 | 155 | 3.2 | 6.4 | 0.00 | 0.00 | 0.00 | 69 | 1014.2 |
| 20260505034647 | 20 | 152 | 3.2 | 6.4 | 0.00 | 0.00 | 0.00 | 68 | 1013.9 |
| 20260505034148 | 20 | 157 | 1.6 | 8.0 | 0.00 | 0.00 | 0.00 | 68 | 1013.5 |
| 20260505033646 | 20 | 144 | 4.8 | 8.0 | 0.00 | 0.00 | 0.00 | 68 | 1013.5 |
| 20260505033148 | 20 | 163 | 6.4 | 8.0 | 0.00 | 0.00 | 0.00 | 68 | 1013.9 |
| 20260505032647 | 20 | 162 | 6.4 | 11.3 | 0.00 | 0.00 | 0.00 | 67 | 1013.9 |
| 20260505032149 | 20 | 127 | 9.7 | 12.9 | 0.00 | 0.00 | 0.00 | 67 | 1013.5 |
| 20260505031646 | 20 | 142 | 8.0 | 11.3 | 0.00 | 0.00 | 0.00 | 67 | 1013.9 |
| 20260505031147 | 20 | 151 | 6.4 | 11.3 | 0.00 | 0.00 | 0.00 | 67 | 1013.5 |
| 20260505030648 | 20 | 168 | 4.8 | 9.7 | 0.00 | 0.00 | 0.00 | 67 | 1013.9 |
| 20260505030148 | 20 | 166 | 4.8 | 12.9 | 0.00 | 0.00 | 0.00 | 66 | 1013.5 |
| 20260505025649 | 20 | 143 | 6.4 | 14.5 | 0.00 | 0.00 | 0.00 | 66 | 1013.9 |
| 20260505025148 | 20 | 147 | 8.0 | 12.9 | 0.00 | 0.00 | 0.00 | 66 | 1013.9 |
| 20260505024648 | 20 | 170 | 4.8 | 9.7 | 0.00 | 0.00 | 0.00 | 66 | 1013.9 |
| 20260505024149 | 20 | 128 | 9.7 | 12.9 | 0.00 | 0.00 | 0.00 | 65 | 1013.9 |
| 20260505023646 | 20 | 135 | 6.4 | 12.9 | 0.00 | 0.00 | 0.00 | 65 | 1013.9 |
| 20260505023148 | 20 | 147 | 3.2 | 12.9 | 0.00 | 0.00 | 0.00 | 65 | 1013.9 |
| 20260505022649 | 20 | 152 | 6.4 | 12.9 | 0.00 | 0.00 | 0.00 | 65 | 1013.9 |
| 20260505022147 | 20 | 149 | 9.7 | 14.5 | 0.00 | 0.00 | 0.00 | 65 | 1013.5 |
| 20260505021649 | 20 | 141 | 9.7 | 14.5 | 0.00 | 0.00 | 0.00 | 64 | 1013.9 |
| 20260505021149 | 20 | 145 | 4.8 | 11.3 | 0.00 | 0.00 | 0.00 | 64 | 1013.9 |
| 20260505020650 | 20 | 156 | 6.4 | 16.1 | 0.00 | 0.00 | 0.00 | 64 | 1013.5 |
| 20260505020146 | 20 | 162 | 8.0 | 11.3 | 0.00 | 0.00 | 0.00 | 65 | 1013.5 |
| 20260505015647 | 20 | 160 | 4.8 | 8.0 | 0.00 | 0.00 | 0.00 | 64 | 1013.5 |
| 20260505015146 | 20 | 145 | 4.8 | 11.3 | 0.00 | 0.00 | 0.00 | 63 | 1013.5 |
| 20260505014646 | 20 | 153 | 4.8 | 14.5 | 0.00 | 0.00 | 0.00 | 63 | 1013.5 |
| 20260505014146 | 20 | 150 | 6.4 | 9.7 | 0.00 | 0.00 | 0.00 | 62 | 1013.2 |
| 20260505013647 | 20 | 146 | 4.8 | 11.3 | 0.00 | 0.00 | 0.00 | 62 | 1013.5 |
| 20260505013147 | 20 | 136 | 4.8 | 11.3 | 0.00 | 0.00 | 0.00 | 62 | 1013.2 |
| 20260505012646 | 20 | 154 | 6.4 | 8.0 | 0.00 | 0.00 | 0.00 | 62 | 1013.5 |
| 20260505012146 | 21 | 163 | 4.8 | 6.4 | 0.00 | 0.00 | 0.00 | 61 | 1013.5 |
| 20260505011648 | 21 | 164 | 8.0 | 9.7 | 0.00 | 0.00 | 0.00 | 61 | 1013.5 |
| 20260505011147 | 21 | 158 | 8.0 | 9.7 | 0.00 | 0.00 | 0.00 | 61 | 1013.5 |
| 20260505010647 | 21 | 166 | 8.0 | 9.7 | 0.00 | 0.00 | 0.00 | 60 | 1013.5 |
| 20260505010148 | 21 | 140 | 8.0 | 12.9 | 0.00 | 0.00 | 0.00 | 59 | 1013.5 |
| 20260505005648 | 21 | 156 | 8.0 | 11.3 | 0.00 | 0.00 | 0.00 | 59 | 1013.5 |
| 20260505005148 | 21 | 158 | 4.8 | 9.7 | 0.00 | 0.00 | 0.00 | 58 | 1013.5 |
| 20260505004650 | 21 | 142 | 4.8 | 9.7 | 0.00 | 0.00 | 0.00 | 58 | 1013.5 |
| 20260505004146 | 21 | 149 | 9.7 | 11.3 | 0.00 | 0.00 | 0.00 | 58 | 1013.5 |
| 20260505003648 | 21 | 166 | 9.7 | 12.9 | 0.00 | 0.00 | 0.00 | 57 | 1013.5 |
| 20260505003147 | 21 | 138 | 6.4 | 12.9 | 0.00 | 0.00 | 0.00 | 57 | 1013.5 |
| 20260505002646 | 21 | 161 | 9.7 | 12.9 | 0.00 | 0.00 | 0.00 | 57 | 1013.5 |
| 20260505002146 | 22 | 159 | 4.8 | 12.9 | 0.00 | 0.00 | 0.00 | 56 | 1013.5 |
| 20260505001646 | 22 | 159 | 6.4 | 12.9 | 0.00 | 0.00 | 0.00 | 54 | 1013.9 |
| 20260505001147 | 22 | 177 | 6.4 | 12.9 | 0.00 | 0.00 | 0.00 | 54 | 1013.9 |
| 20260505000646 | 22 | 164 | 11.3 | 14.5 | 0.00 | 0.00 | 0.00 | 54 | 1013.5 |
| 20260505000153 | 22 | 153 | 8.0 | 12.9 | 0.00 | 0.00 | 0.00 | 53 | 1013.5 |
| 20260504235646 | 22 | 159 | 6.4 | 12.9 | 0.00 | 0.00 | 0.00 | 52 | 1013.5 |
| 20260504235146 | 22 | 153 | 9.7 | 17.7 | 0.00 | 0.00 | 0.00 | 52 | 1013.5 |
| 20260504234647 | 22 | 149 | 9.7 | 16.1 | 0.00 | 0.00 | 0.00 | 51 | 1013.5 |
| 20260504234146 | 22 | 170 | 11.3 | 16.1 | 0.00 | 0.00 | 0.00 | 51 | 1013.9 |
| 20260504233647 | 22 | 182 | 11.3 | 17.7 | 0.00 | 0.00 | 0.00 | 51 | 1013.9 |
| 20260504233148 | 22 | 127 | 9.7 | 16.1 | 0.00 | 0.00 | 0.00 | 52 | 1013.9 |
| 20260504232646 | 22 | 161 | 12.9 | 16.1 | 0.00 | 0.00 | 0.00 | 50 | 1013.9 |
| 20260504232146 | 23 | 173 | 12.9 | 17.7 | 0.00 | 0.00 | 0.00 | 49 | 1013.9 |
| 20260504231157 | 23 | 172 | 11.3 | 16.1 | 0.00 | 0.00 | 0.00 | 49 | 1014.2 |
| 20260504230646 | 23 | 165 | 12.9 | 22.5 | 0.00 | 0.00 | 0.00 | 48 | 1014.2 |
| 20260504230147 | 23 | 195 | 14.5 | 22.5 | 0.00 | 0.00 | 0.00 | 48 | 1014.2 |
| 20260504225647 | 23 | 186 | 12.9 | 17.7 | 0.00 | 0.00 | 0.00 | 48 | 1014.2 |
| 20260504225147 | 23 | 173 | 16.1 | 17.7 | 0.00 | 0.00 | 0.00 | 47 | 1014.2 |
| 20260504224646 | 23 | 163 | 9.7 | 19.3 | 0.00 | 0.00 | 0.00 | 47 | 1014.2 |
| 20260504224147 | 23 | 150 | 9.7 | 20.9 | 0.00 | 0.00 | 0.00 | 46 | 1014.2 |
| 20260504223646 | 23 | 164 | 6.4 | 17.7 | 0.00 | 0.00 | 0.00 | 46 | 1014.2 |
| 20260504223146 | 23 | 153 | 14.5 | 20.9 | 0.00 | 0.00 | 0.00 | 45 | 1014.2 |
| 20260504222647 | 23 | 130 | 4.8 | 11.3 | 0.00 | 0.00 | 0.00 | 45 | 1014.2 |
| 20260504222146 | 23 | 165 | 16.1 | 20.9 | 0.00 | 0.00 | 0.00 | 45 | 1014.2 |
| 20260504221646 | 23 | 172 | 14.5 | 19.3 | 0.00 | 0.00 | 0.00 | 45 | 1014.2 |
| 20260504221147 | 23 | 174 | 12.9 | 17.7 | 0.00 | 0.00 | 0.00 | 44 | 1014.6 |
| 20260504220646 | 23 | 169 | 11.3 | 17.7 | 0.00 | 0.00 | 0.00 | 43 | 1014.6 |
| 20260504220147 | 23 | 164 | 12.9 | 17.7 | 0.00 | 0.00 | 0.00 | 44 | 1014.6 |
| 20260504215646 | 23 | 186 | 8.0 | 20.9 | 0.00 | 0.00 | 0.00 | 43 | 1014.6 |
| 20260504215146 | 24 | 180 | 11.3 | 14.5 | 0.00 | 0.00 | 0.00 | 43 | 1014.6 |
| 20260504214646 | 23 | 149 | 12.9 | 20.9 | 0.00 | 0.00 | 0.00 | 43 | 1014.2 |
| 20260504214147 | 23 | 179 | 14.5 | 19.3 | 0.00 | 0.00 | 0.00 | 44 | 1014.2 |
| 20260504213646 | 23 | 165 | 9.7 | 20.9 | 0.00 | 0.00 | 0.00 | 44 | 1014.2 |
| 20260504213146 | 23 | 169 | 17.7 | 20.9 | 0.00 | 0.00 | 0.00 | 44 | 1014.6 |
| 20260504212647 | 23 | 143 | 14.5 | 19.3 | 0.00 | 0.00 | 0.00 | 44 | 1014.6 |
| 20260504212147 | 23 | 168 | 17.7 | 20.9 | 0.00 | 0.00 | 0.00 | 44 | 1014.6 |
| 20260504211647 | 23 | 207 | 12.9 | 16.1 | 0.00 | 0.00 | 0.00 | 43 | 1014.9 |
| 20260504211147 | 23 | 180 | 11.3 | 16.1 | 0.00 | 0.00 | 0.00 | 43 | 1014.9 |
| 20260504210648 | 23 | 195 | 12.9 | 20.9 | 0.00 | 0.00 | 0.00 | 42 | 1014.6 |
| 20260504210147 | 23 | 154 | 17.7 | 19.3 | 0.00 | 0.00 | 0.00 | 42 | 1014.6 |
| 20260504205647 | 24 | 160 | 16.1 | 20.9 | 0.00 | 0.00 | 0.00 | 41 | 1014.9 |
| 20260504205150 | 23 | 180 | 19.3 | 22.5 | 0.00 | 0.00 | 0.00 | 40 | 1014.9 |
| 20260504204647 | 23 | 159 | 11.3 | 20.9 | 0.00 | 0.00 | 0.00 | 40 | 1014.9 |
| 20260504204147 | 23 | 181 | 12.9 | 17.7 | 0.00 | 0.00 | 0.00 | 41 | 1015.2 |
| 20260504203646 | 23 | 164 | 20.9 | 22.5 | 0.00 | 0.00 | 0.00 | 40 | 1015.2 |
| 20260504203146 | 23 | 180 | 14.5 | 22.5 | 0.00 | 0.00 | 0.00 | 40 | 1015.2 |
| 20260504202650 | 24 | 155 | 11.3 | 24.1 | 0.00 | 0.00 | 0.00 | 38 | 1015.2 |
| 20260504202146 | 23 | 120 | 6.4 | 12.9 | 0.00 | 0.00 | 0.00 | 40 | 1015.2 |
| 20260504201647 | 24 | 169 | 11.3 | 19.3 | 0.00 | 0.00 | 0.00 | 38 | 1015.6 |
| 20260504201146 | 24 | 176 | 6.4 | 20.9 | 0.00 | 0.00 | 0.00 | 38 | 1015.6 |
| 20260504200647 | 23 | 246 | 12.9 | 19.3 | 0.00 | 0.00 | 0.00 | 39 | 1015.6 |
| 20260504200146 | 24 | 178 | 11.3 | 17.7 | 0.00 | 0.00 | 0.00 | 39 | 1015.9 |
| 20260504195646 | 25 | 180 | 14.5 | 22.5 | 0.00 | 0.00 | 0.00 | 39 | 1015.6 |
| 20260504195147 | 23 | 42 | 8.0 | 22.5 | 0.00 | 0.00 | 0.00 | 39 | 1015.9 |
| 20260504194646 | 24 | 240 | 8.0 | 24.1 | 0.00 | 0.00 | 0.00 | 37 | 1015.9 |
| 20260504194146 | 24 | 202 | 9.7 | 20.9 | 0.00 | 0.00 | 0.00 | 38 | 1015.9 |
| 20260504193646 | 23 | 185 | 6.4 | 19.3 | 0.00 | 0.00 | 0.00 | 38 | 1016.3 |
| 20260504193147 | 24 | 186 | 8.0 | 17.7 | 0.00 | 0.00 | 0.00 | 40 | 1015.9 |
| 20260504192647 | 24 | 175 | 14.5 | 19.3 | 0.00 | 0.00 | 0.00 | 39 | 1015.9 |
| 20260504192146 | 24 | 194 | 19.3 | 20.9 | 0.00 | 0.00 | 0.00 | 39 | 1015.9 |
| 20260504191648 | 23 | 159 | 16.1 | 25.7 | 0.00 | 0.00 | 0.00 | 40 | 1016.3 |
| 20260504191146 | 23 | 193 | 12.9 | 20.9 | 0.00 | 0.00 | 0.00 | 40 | 1015.9 |
| 20260504190647 | 23 | 169 | 14.5 | 22.5 | 0.00 | 0.00 | 0.00 | 40 | 1016.3 |
| 20260504190149 | 24 | 170 | 16.1 | 27.4 | 0.00 | 0.00 | 0.00 | 40 | 1016.6 |
| 20260504185646 | 23 | 171 | 8.0 | 17.7 | 0.00 | 0.00 | 0.00 | 40 | 1016.6 |
| 20260504185147 | 23 | 183 | 20.9 | 27.4 | 0.00 | 0.00 | 0.00 | 40 | 1016.6 |
| 20260504184646 | 23 | 171 | 11.3 | 20.9 | 0.00 | 0.00 | 0.00 | 40 | 1016.3 |
| 20260504184147 | 23 | 169 | 11.3 | 19.3 | 0.00 | 0.00 | 0.00 | 40 | 1016.9 |
| 20260504183647 | 23 | 183 | 9.7 | 19.3 | 0.00 | 0.00 | 0.00 | 41 | 1016.6 |
| 20260504183147 | 23 | 159 | 12.9 | 27.4 | 0.00 | 0.00 | 0.00 | 40 | 1016.9 |
| 20260504182647 | 23 | 205 | 9.7 | 19.3 | 0.00 | 0.00 | 0.00 | 42 | 1016.9 |
| 20260504182146 | 23 | 179 | 16.1 | 27.4 | 0.00 | 0.00 | 0.00 | 41 | 1016.9 |
| 20260504181647 | 23 | 177 | 11.3 | 20.9 | 0.00 | 0.00 | 0.00 | 42 | 1016.9 |
| 20260504181148 | 23 | 213 | 11.3 | 20.9 | 0.00 | 0.00 | 0.00 | 42 | 1016.6 |
| 20260504180647 | 23 | 197 | 9.7 | 17.7 | 0.00 | 0.00 | 0.00 | 42 | 1016.6 |
| 20260504180147 | 23 | 185 | 12.9 | 24.1 | 0.00 | 0.00 | 0.00 | 42 | 1016.9 |
| 20260504175647 | 23 | 195 | 14.5 | 24.1 | 0.00 | 0.00 | 0.00 | 43 | 1016.9 |
| 20260504175147 | 23 | 195 | 12.9 | 24.1 | 0.00 | 0.00 | 0.00 | 44 | 1016.6 |
| 20260504174647 | 23 | 219 | 16.1 | 17.7 | 0.00 | 0.00 | 0.00 | 43 | 1016.9 |
| 20260504174146 | 23 | 205 | 11.3 | 24.1 | 0.00 | 0.00 | 0.00 | 41 | 1017.3 |
| 20260504173646 | 23 | 158 | 12.9 | 16.1 | 0.00 | 0.00 | 0.00 | 44 | 1016.9 |
| 20260504173147 | 23 | 168 | 4.8 | 11.3 | 0.00 | 0.00 | 0.00 | 45 | 1016.6 |
| 20260504172647 | 23 | 207 | 9.7 | 11.3 | 0.00 | 0.00 | 0.00 | 44 | 1016.9 |
| 20260504172147 | 23 | 202 | 11.3 | 17.7 | 0.00 | 0.00 | 0.00 | 44 | 1016.9 |
| 20260504171647 | 23 | 173 | 4.8 | 14.5 | 0.00 | 0.00 | 0.00 | 45 | 1016.9 |
| 20260504171148 | 23 | 161 | 9.7 | 17.7 | 0.00 | 0.00 | 0.00 | 46 | 1016.9 |
| 20260504170650 | 23 | 152 | 14.5 | 22.5 | 0.00 | 0.00 | 0.00 | 45 | 1016.9 |
| 20260504170146 | 23 | 140 | 8.0 | 20.9 | 0.00 | 0.00 | 0.00 | 46 | 1016.9 |
| 20260504160148 | 23 | 165 | 9.7 | 12.9 | 0.00 | 0.00 | 0.00 | 46 | 1017.3 |
| 20260504151147 | 22 | 153 | 9.7 | 14.5 | 0.00 | 0.00 | 0.00 | 49 | 1017.9 |
| 20260504150647 | 22 | 185 | 8.0 | 16.1 | 0.00 | 0.00 | 0.00 | 46 | 1017.9 |
| 20260504150146 | 22 | 168 | 8.0 | 14.5 | 0.00 | 0.00 | 0.00 | 46 | 1017.6 |
| 20260504141149 | 21 | 194 | 6.4 | 8.0 | 0.00 | 0.00 | 0.00 | 56 | 1017.9 |
| 20260504140647 | 21 | 166 | 4.8 | 6.4 | 0.00 | 0.00 | 0.00 | 59 | 1017.9 |
| 20260504140146 | 21 | 152 | 1.6 | 6.4 | 0.00 | 0.00 | 0.00 | 56 | 1017.6 |
| 20260504130648 | 19 | 223 | 4.8 | 4.8 | 0.00 | 0.00 | 0.00 | 66 | 1017.9 |
| 20260504130146 | 18 | 180 | 0.0 | 3.2 | 0.00 | 0.00 | 0.00 | 68 | 1017.6 |
| 20260504120148 | 15 | 162 | 1.6 | 1.6 | 0.00 | 0.00 | 0.00 | 82 | 1017.3 |
| 20260504110646 | 14 | 141 | 0.0 | 3.2 | 0.00 | 0.00 | 0.00 | 85 | 1017.3 |
| 20260504110147 | 14 | 145 | 1.6 | 1.6 | 0.00 | 0.00 | 0.00 | 84 | 1016.9 |
| 20260504100149 | 15 | 193 | 1.6 | 3.2 | 0.00 | 0.00 | 0.00 | 79 | 1017.3 |
| 20260504081646 | 15 | 210 | 1.6 | 1.6 | 0.00 | 0.00 | 0.00 | 79 | 1017.3 |
| 20260504081147 | 15 | 235 | 1.6 | 1.6 | 0.00 | 0.00 | 0.00 | 79 | 1016.9 |
| 20260504080647 | 15 | 174 | 1.6 | 3.2 | 0.00 | 0.00 | 0.00 | 78 | 1017.3 |
| 20260504080147 | 15 | 229 | 0.0 | 1.6 | 0.00 | 0.00 | 0.00 | 78 | 1017.3 |
| 20260504070148 | 16 | 166 | 4.8 | 6.4 | 0.00 | 0.00 | 0.00 | 76 | 1017.6 |
| 20260504060146 | 17 | 197 | 3.2 | 3.2 | 0.00 | 0.00 | 0.00 | 72 | 1018.3 |